When you browse on this site, cookies collect data to enhance your experience and personalize the content and advertising you see.
Visit our Privacy Policy to learn more. By continuing to use the site, you agree to this use of cookies and data.
  • în România
  • Lista ţărilor
  • Pe 7 zile
  • Temperatura apei
  • Meteo pe hartă
  • Widget-uri
  • user-avatar
    Intrare

    Meteo pe oră la Bekescsaba

    Astăzi, 26 Februarie, Miercuri

    Timp Temperatura Precipitaţii Vânt Presiune Umiditate
    00:00 +11°C° 0 mm 4 m/s 744 mmHg 73%
    01:00 +10°C° 0 mm 4 m/s 744 mmHg 73%
    02:00 +10°C° 0.4 mm 4 m/s 743 mmHg 76%
    03:00 +10°C° 0.4 mm 4 m/s 742 mmHg 79%
    04:00 +8°C° 0.4 mm 4 m/s 742 mmHg 82%
    05:00 +8°C° 0.3 mm 5 m/s 741 mmHg 80%
    06:00 +8°C° 0.3 mm 5 m/s 741 mmHg 79%
    07:00 +8°C° 0 mm 5 m/s 741 mmHg 78%
    08:00 +8°C° 0.3 mm 5 m/s 741 mmHg 78%
    09:00 +9°C° 0.3 mm 6 m/s 740 mmHg 79%
    10:00 +9°C° 0.3 mm 6 m/s 740 mmHg 80%
    11:00 +9°C° 0.4 mm 5 m/s 740 mmHg 80%
    12:00 +9°C° 0.4 mm 5 m/s 739 mmHg 80%
    13:00 +10°C° 0.4 mm 4 m/s 739 mmHg 80%
    14:00 +8°C° 0.4 mm 4 m/s 739 mmHg 82%
    15:00 +8°C° 0.4 mm 4 m/s 739 mmHg 83%
    16:00 +7°C° 0.4 mm 4 m/s 738 mmHg 85%
    17:00 +8°C° 0 mm 3 m/s 739 mmHg 84%
    18:00 +7°C° 0 mm 3 m/s 740 mmHg 84%
    19:00 +7°C° 0 mm 3 m/s 740 mmHg 83%
    20:00 +7°C° 0 mm 3 m/s 740 mmHg 79%
    21:00 +7°C° 0 mm 3 m/s 740 mmHg 76%
    22:00 +5°C° 0 mm 3 m/s 741 mmHg 72%
    23:00 +5°C° 0 mm 3 m/s 741 mmHg 72%

    Mâine, 27 Februarie, Joi

    Timp Temperatura Precipitaţii Vânt Presiune Umiditate
    00:00 +4°C° 0 mm 3 m/s 741 mmHg 71%
    01:00 +4°C° 0 mm 4 m/s 742 mmHg 70%
    02:00 +4°C° 0 mm 4 m/s 742 mmHg 71%
    03:00 +3°C° 0 mm 4 m/s 742 mmHg 72%
    04:00 +3°C° 0 mm 4 m/s 742 mmHg 73%
    05:00 +3°C° 0 mm 4 m/s 742 mmHg 75%
    06:00 +1°C° 0 mm 4 m/s 743 mmHg 77%
    07:00 +1°C° 0 mm 4 m/s 744 mmHg 79%
    08:00 +3°C° 0 mm 4 m/s 744 mmHg 74%
    09:00 +3°C° 0 mm 5 m/s 745 mmHg 70%
    10:00 +5°C° 0 mm 5 m/s 745 mmHg 66%
    11:00 +4°C° 0 mm 6 m/s 746 mmHg 62%
    12:00 +5°C° 0 mm 6 m/s 746 mmHg 58%
    13:00 +7°C° 0 mm 6 m/s 746 mmHg 54%
    14:00 +7°C° 0 mm 6 m/s 746 mmHg 54%
    15:00 +7°C° 0 mm 6 m/s 746 mmHg 55%
    16:00 +7°C° 0 mm 6 m/s 746 mmHg 55%
    17:00 +6°C° 0 mm 5 m/s 747 mmHg 60%
    18:00 +5°C° 0 mm 4 m/s 747 mmHg 64%
    19:00 +3°C° 0 mm 3 m/s 748 mmHg 68%
    20:00 +3°C° 0 mm 3 m/s 747 mmHg 69%
    21:00 +3°C° 0 mm 3 m/s 747 mmHg 70%
    22:00 +2°C° 0 mm 3 m/s 747 mmHg 71%
    23:00 +1°C° 0 mm 4 m/s 747 mmHg 70%

    Poimâine, 28 Februarie, Vineri

    Timp Temperatura Precipitaţii Vânt Presiune Umiditate
    00:00 +2°C° 0 mm 5 m/s 746 mmHg 69%
    01:00 +2°C° 0 mm 7 m/s 746 mmHg 68%
    02:00 +2°C° 0.1 mm 7 m/s 745 mmHg 69%
    03:00 +2°C° 0.1 mm 7 m/s 745 mmHg 70%
    04:00 +2°C° 0.1 mm 7 m/s 745 mmHg 72%
    05:00 +1°C° 0.3 mm 8 m/s 744 mmHg 74%
    06:00 +1°C° 0.3 mm 9 m/s 744 mmHg 76%
    07:00 +1°C° 0.3 mm 9 m/s 744 mmHg 78%
    08:00 +2°C° 0.1 mm 10 m/s 744 mmHg 71%
    09:00 +3°C° 0.1 mm 10 m/s 745 mmHg 65%
    10:00 +5°C° 0.1 mm 10 m/s 745 mmHg 58%
    11:00 +4°C° 0.1 mm 11 m/s 745 mmHg 61%
    12:00 +3°C° 0.1 mm 11 m/s 746 mmHg 63%
    13:00 +3°C° 0.1 mm 11 m/s 747 mmHg 65%
    14:00 +4°C° 0 mm 11 m/s 747 mmHg 62%
    15:00 +5°C° 0 mm 10 m/s 748 mmHg 58%
    16:00 +5°C° 0 mm 10 m/s 749 mmHg 55%
    17:00 +3°C° 0 mm 9 m/s 750 mmHg 57%
    18:00 +2°C° 0 mm 8 m/s 751 mmHg 60%
    19:00 +2°C° 0 mm 7 m/s 752 mmHg 62%
    20:00 +2°C° 0 mm 6 m/s 753 mmHg 64%
    21:00 +1°C° 0 mm 5 m/s 754 mmHg 67%
    22:00 +1°C° 0 mm 4 m/s 754 mmHg 69%
    23:00 0°C° 0 mm 4 m/s 755 mmHg 72%

    29 Februarie, Sâmbătă

    Timp Temperatura Precipitaţii Vânt Presiune Umiditate
    00:00 +1°C° 0 mm 3 m/s 755 mmHg 74%
    01:00 +1°C° 0 mm 3 m/s 755 mmHg 77%
    02:00 +1°C° 0 mm 2 m/s 755 mmHg 78%
    03:00 +1°C° 0 mm 2 m/s 755 mmHg 78%
    04:00 +2°C° 0 mm 1 m/s 755 mmHg 79%
    05:00 +2°C° 0 mm 1 m/s 755 mmHg 79%
    06:00 +1°C° 0 mm 2 m/s 755 mmHg 79%
    07:00 +1°C° 0 mm 2 m/s 756 mmHg 79%
    08:00 +1°C° 0 mm 3 m/s 755 mmHg 73%
    09:00 +3°C° 0 mm 3 m/s 755 mmHg 66%
    10:00 +4°C° 0 mm 4 m/s 755 mmHg 60%
    11:00 +5°C° 0 mm 4 m/s 755 mmHg 56%
    12:00 +6°C° 0 mm 5 m/s 754 mmHg 52%
    13:00 +7°C° 0 mm 5 m/s 754 mmHg 48%
    14:00 +7°C° 0 mm 5 m/s 753 mmHg 49%
    15:00 +7°C° 0 mm 5 m/s 753 mmHg 49%
    16:00 +7°C° 0 mm 5 m/s 752 mmHg 50%
    17:00 +6°C° 0 mm 5 m/s 752 mmHg 54%
    18:00 +5°C° 0 mm 5 m/s 752 mmHg 58%
    19:00 +4°C° 0 mm 4 m/s 752 mmHg 61%
    20:00 +4°C° 0 mm 4 m/s 752 mmHg 61%
    21:00 +4°C° 0 mm 4 m/s 752 mmHg 61%
    22:00 +3°C° 0 mm 5 m/s 751 mmHg 61%
    23:00 +3°C° 0 mm 5 m/s 751 mmHg 60%

    1 Martie, Duminică

    Timp Temperatura Precipitaţii Vânt Presiune Umiditate
    00:00 +3°C° 0 mm 5 m/s 751 mmHg 60%
    01:00 +3°C° 0 mm 5 m/s 750 mmHg 59%
    02:00 +3°C° 0 mm 5 m/s 750 mmHg 59%
    03:00 +3°C° 0 mm 6 m/s 750 mmHg 59%
    04:00 +3°C° 0 mm 6 m/s 750 mmHg 59%
    05:00 +3°C° 0 mm 6 m/s 749 mmHg 59%
    06:00 +3°C° 0 mm 6 m/s 749 mmHg 59%
    07:00 +3°C° 0 mm 7 m/s 749 mmHg 59%
    08:00 +4°C° 0 mm 7 m/s 749 mmHg 60%
    09:00 +5°C° 0 mm 7 m/s 749 mmHg 61%
    10:00 +5°C° 0 mm 7 m/s 749 mmHg 62%
    11:00 +7°C° 0.1 mm 6 m/s 749 mmHg 65%
    12:00 +7°C° 0.1 mm 5 m/s 749 mmHg 67%
    13:00 +7°C° 0.1 mm 4 m/s 749 mmHg 70%
    14:00 +8°C° 0.2 mm 3 m/s 749 mmHg 72%
    15:00 +9°C° 0.2 mm 2 m/s 748 mmHg 74%
    16:00 +9°C° 0.2 mm 2 m/s 748 mmHg 77%
    17:00 +9°C° 0.1 mm 3 m/s 748 mmHg 76%
    18:00 +8°C° 0.1 mm 4 m/s 747 mmHg 76%
    19:00 +8°C° 0.1 mm 5 m/s 747 mmHg 75%
    20:00 +8°C° 0.4 mm 6 m/s 747 mmHg 76%
    21:00 +8°C° 0.4 mm 7 m/s 746 mmHg 77%
    22:00 +8°C° 0.4 mm 7 m/s 746 mmHg 78%
    23:00 +8°C° 0 mm 7 m/s 746 mmHg 80%

    2 Martie, Luni

    Timp Temperatura Precipitaţii Vânt Presiune Umiditate
    00:00 +8°C° 0 mm 7 m/s 746 mmHg 81%
    01:00 +8°C° 0 mm 7 m/s 746 mmHg 83%
    02:00 +8°C° 0 mm 6 m/s 746 mmHg 86%
    03:00 +7°C° 0 mm 5 m/s 746 mmHg 89%
    04:00 +6°C° 0 mm 5 m/s 746 mmHg 93%
    05:00 +6°C° 0 mm 4 m/s 746 mmHg 92%
    06:00 +5°C° 0 mm 4 m/s 747 mmHg 91%
    07:00 +4°C° 0 mm 3 m/s 747 mmHg 91%
    08:00 +5°C° 0 mm 3 m/s 747 mmHg 86%
    09:00 +7°C° 0 mm 3 m/s 748 mmHg 81%
    10:00 +7°C° 0 mm 4 m/s 748 mmHg 76%
    11:00 +9°C° 0 mm 3 m/s 748 mmHg 71%
    12:00 +10°C° 0 mm 3 m/s 748 mmHg 65%
    13:00 +11°C° 0 mm 3 m/s 749 mmHg 59%
    14:00 +12°C° 0 mm 2 m/s 749 mmHg 58%
    15:00 +12°C° 0 mm 2 m/s 749 mmHg 56%
    16:00 +12°C° 0 mm 2 m/s 749 mmHg 54%
    17:00 +11°C° 0 mm 1 m/s 749 mmHg 58%
    18:00 +10°C° 0 mm 1 m/s 749 mmHg 62%
    19:00 +8°C° 0 mm 0 m/s 749 mmHg 66%
    20:00 +8°C° 0 mm 1 m/s 749 mmHg 68%
    21:00 +7°C° 0 mm 2 m/s 749 mmHg 71%
    22:00 +6°C° 0 mm 2 m/s 749 mmHg 73%
    23:00 +6°C° 0 mm 2 m/s 749 mmHg 76%
    Arată mai mult